Location: S�tio Afonso Gruber
(26.1760°S, 49.5250°W)
Time: 17:27:51
(UTC+00:00)

STARS - Visible Passes

Search period start: 30 November 2022 00:00
Search period end: 10 December 2022 00:00
Orbit: 619 x 636 km, 98.2° (Epoch: 29 November)

Date Brightness Start Highest point End Pass type
(mag) Time Alt. Az. Time Alt. Az. Time Alt. Az.
30 Nov ? 01:03:40 13° SSE 01:03:40 13° SSE 01:04:18 10° SSE visible
01 Dec ? 01:23:27 15° S 01:23:27 15° S 01:24:20 10° S visible
02 Dec ? 01:43:14 15° S 01:43:14 15° S 01:44:04 10° S visible
03 Dec ? 02:03:02 13° SSW 02:03:02 13° SSW 02:03:33 10° SSW visible
04 Dec ? 00:45:30 11° SSE 00:45:30 11° SSE 00:45:43 10° SSE visible
05 Dec ? 01:05:17 15° SSE 01:05:17 15° SSE 01:06:10 10° SSE visible
06 Dec ? 01:25:04 17° S 01:25:04 17° S 01:26:10 10° S visible
07 Dec ? 01:44:51 17° SSW 01:44:51 17° SSW 01:45:52 10° SSW visible
08 Dec ? 02:04:37 14° SSW 02:04:37 14° SSW 02:05:20 10° SSW visible
09 Dec ? 00:47:05 12° SE 00:47:05 12° SE 00:47:34 10° SSE visible
09 Dec ? 02:24:24 10° SW 02:24:24 10° SW 02:24:28 10° SW visible
